Le nostre stazioni meteo in Italia

Pubblicità
Il mio iltempo24.it
Capo Bellavista, Italia (16550): Temperatura & dewpoint: 14.10.2017 09:00:00 - 20.10.2017 09:00:00 (CEST)Capo Bellavista, Italia (16550): velocità del vento: 14.10.2017 09:00:00 - 20.10.2017 09:00:00 (CEST)Capo Bellavista, Italia (16550): direzione del vento: 14.10.2017 09:00:00 - 20.10.2017 09:00:00 (CEST)Capo Bellavista, Italia (16550): reduced air pressure: 14.10.2017 09:00:00 - 20.10.2017 09:00:00 (CEST)Capo Bellavista, Italia (16550): visibility: 14.10.2017 09:00:00 - 20.10.2017 09:00:00 (CEST)Capo Bellavista, Italia (16550): ore di luce: 14.10.2017 09:00:00 - 20.10.2017 09:00:00 (CEST)
Data & Tempo tt [°C] td [°C] ff [km/h] ff [kn] dd ppp [hPa] vv [km] sd [min]
20.10.2017 09:00:00 - - - - - - - -
20.10.2017 08:00:00 20,8 19,0 9 5 OSO 1014,6 10 0
20.10.2017 07:00:00 20,4 18,7 9 5 ENE 1014,3 10 -
20.10.2017 06:00:00 20,0 18,2 13 7 ENE 1014,5 10 -
20.10.2017 05:00:00 20,0 18,4 11 6 N 1014,4 10 -
20.10.2017 04:00:00 21,0 19,5 9 5 S 1014,4 10 -
20.10.2017 03:00:00 20,2 19,3 11 6 NO 1014,4 10 -
20.10.2017 02:00:00 21,0 20,1 5 3 SO 1014,5 10 -
20.10.2017 01:00:00 21,0 19,2 4 2 OSO 1014,6 10 -
20.10.2017 00:00:00 20,8 19,0 13 7 S 1014,6 10 -
19.10.2017 23:00:00 20,8 19,0 11 6 S 1014,4 10 -
19.10.2017 22:00:00 20,8 19,4 8 4 O 1014,5 10 -
19.10.2017 21:00:00 20,8 19,7 8 4 ONO 1014,4 10 -
19.10.2017 20:00:00 21,0 19,8 8 4 N 1014,1 10 -
19.10.2017 19:00:00 22,0 20,3 5 3 ESE 1014,1 10 0
19.10.2017 18:00:00 22,8 20,2 5 3 E 1013,9 10 0
19.10.2017 17:00:00 24,0 21,2 5 3 NNE 1014,3 10 0
19.10.2017 16:00:00 24,0 22,3 5 3 S 1014,6 10 6
19.10.2017 15:00:00 23,4 20,0 9 5 NE 1015,3 10 12
19.10.2017 14:00:00 24,2 19,0 9 5 ESE 1015,6 10 30
19.10.2017 13:00:00 23,6 15,0 9 5 ESE 1016,2 10 60
19.10.2017 12:00:00 25,0 16,7 8 4 SE 1016,1 10 60
19.10.2017 11:00:00 23,4 16,5 4 2 N 1015,9 10 54
19.10.2017 10:00:00 20,8 14,9 0 0 N 1015,7 10 60
19.10.2017 09:00:00 18,0 12,8 13 7 NO 1015,7 10 24
19.10.2017 08:00:00 17,4 12,8 16 9 NO 1015,7 10 0
19.10.2017 07:00:00 17,8 12,9 13 7 ONO 1015,7 10 -
19.10.2017 06:00:00 17,6 12,7 18 10 ONO 1015,8 10 -
19.10.2017 05:00:00 17,4 12,8 21 11 ONO 1016,0 10 -
19.10.2017 04:00:00 17,2 13,0 21 11 ONO 1016,7 10 -
19.10.2017 03:00:00 17,4 12,9 16 9 ONO 1017,0 10 -
19.10.2017 02:00:00 18,0 14,9 15 8 ONO 1017,2 10 -
19.10.2017 01:00:00 18,0 15,5 16 9 ONO 1017,5 10 -
19.10.2017 00:00:00 18,0 16,2 15 8 ONO 1017,5 10 -
18.10.2017 23:00:00 18,8 16,4 11 6 O 1017,5 10 -
18.10.2017 22:00:00 19,8 17,7 9 5 OSO 1017,3 10 -
18.10.2017 21:00:00 20,2 18,1 11 6 SSO 1017,3 10 -
18.10.2017 20:00:00 20,8 17,5 13 7 S 1017,3 10 -
18.10.2017 19:00:00 20,8 18,1 15 8 S 1016,9 10 12
18.10.2017 18:00:00 23,2 18,2 9 5 S 1017,1 10 60
18.10.2017 17:00:00 25,2 17,5 8 4 NO 1017,0 10 60
18.10.2017 16:00:00 25,2 16,5 5 3 NE 1017,1 10 60
18.10.2017 15:00:00 24,0 17,2 5 3 SE 1017,4 10 60
18.10.2017 14:00:00 24,8 17,4 4 2 ONO 1018,4 10 60
18.10.2017 13:00:00 24,8 16,7 5 3 S 1019,3 10 60
18.10.2017 12:00:00 23,2 16,6 4 2 SSE 1019,6 10 60
18.10.2017 11:00:00 20,4 16,1 11 6 S 1019,8 10 60
18.10.2017 10:00:00 18,4 14,6 4 2 SO 1019,7 10 60
18.10.2017 09:00:00 16,0 11,6 13 7 ONO 1019,9 10 60
18.10.2017 08:00:00 16,2 11,6 4 2 O 1019,9 10 0
18.10.2017 07:00:00 16,6 12,2 8 4 ONO 1020,2 10 0
18.10.2017 06:00:00 16,8 13,9 11 6 SO 1022,2 10 -
18.10.2017 05:00:00 17,0 15,2 8 4 OSO 1022,3 10 -
18.10.2017 04:00:00 17,4 14,7 9 5 SO 1022,2 10 -
18.10.2017 03:00:00 17,4 15,0 11 6 OSO 1022,4 10 -
18.10.2017 02:00:00 17,6 14,3 11 6 SO 1022,3 10 -
18.10.2017 01:00:00 17,6 16,0 8 4 OSO 1022,3 10 -
18.10.2017 00:00:00 17,8 14,9 11 6 SO 1022,4 10 -
17.10.2017 23:00:00 18,0 15,6 9 5 OSO 1022,4 10 -
17.10.2017 22:00:00 18,0 16,3 9 5 O 1022,6 10 -
17.10.2017 21:00:00 18,8 17,1 5 3 O 1022,6 10 -
17.10.2017 20:00:00 19,8 17,4 15 8 SSO 1022,6 10 -
17.10.2017 19:00:00 20,0 17,0 11 6 S 1022,6 10 0
17.10.2017 18:00:00 23,2 17,0 5 3 S 1021,8 10 60
17.10.2017 17:00:00 22,8 16,6 4 2 S 1022,9 10 60
17.10.2017 16:00:00 18,8 12,3 5 3 SE 1022,9 10 60
17.10.2017 15:00:00 19,0 12,5 8 4 SE 1023,9 10 60
17.10.2017 14:00:00 20,0 12,7 9 5 S 1024,7 10 60
17.10.2017 13:00:00 20,0 12,2 8 4 SE 1025,6 10 60
17.10.2017 12:00:00 19,0 12,3 8 4 SE 1025,7 10 60
17.10.2017 11:00:00 20,8 16,4 5 3 S 1025,6 10 60
17.10.2017 10:00:00 18,8 15,3 4 2 E 1025,8 10 60
17.10.2017 09:00:00 16,0 9,9 13 7 ONO 1025,5 10 48
17.10.2017 08:00:00 16,2 11,6 13 7 ONO 1025,6 10 0
17.10.2017 07:00:00 15,4 10,0 18 10 ONO 1026,0 10 -
17.10.2017 06:00:00 16,0 11,6 11 6 ONO 1026,0 10 -
17.10.2017 05:00:00 18,0 17,0 11 6 ONO 1025,9 10 -
17.10.2017 04:00:00 18,0 16,5 4 2 SSE 1025,9 10 -
17.10.2017 03:00:00 18,2 14,9 8 4 SO 1026,3 10 -
17.10.2017 02:00:00 18,0 14,5 5 3 SO 1026,5 10 -
17.10.2017 01:00:00 17,0 15,4 16 9 NO 1026,9 10 -
17.10.2017 00:00:00 18,0 16,7 13 7 ONO 1026,8 10 -
16.10.2017 23:00:00 17,6 16,6 5 3 ONO 1026,9 10 -
16.10.2017 22:00:00 18,2 17,4 13 7 ONO 1026,9 10 -
16.10.2017 21:00:00 19,6 17,9 8 4 SSO 1027,2 10 -
16.10.2017 20:00:00 19,8 17,8 9 5 SO 1027,0 10 0
16.10.2017 19:00:00 21,0 18,4 8 4 S 1027,0 10 0
16.10.2017 18:00:00 22,0 18,2 4 2 S 1026,8 10 60
16.10.2017 17:00:00 22,8 18,1 4 2 S 1027,3 10 60
16.10.2017 16:00:00 23,0 17,9 9 5 SE 1027,5 10 60
16.10.2017 15:00:00 23,8 18,0 11 6 ESE 1027,6 10 60
16.10.2017 14:00:00 24,0 18,2 15 8 ESE 1027,8 10 60
16.10.2017 13:00:00 24,0 18,0 13 7 ESE 1028,5 10 60
16.10.2017 12:00:00 23,6 17,1 11 6 E 1028,1 10 60
16.10.2017 11:00:00 21,0 16,4 8 4 E 1028,0 10 60
16.10.2017 10:00:00 17,0 9,9 9 5 ONO 1028,2 10 60
16.10.2017 09:00:00 17,0 10,4 8 4 NO 1028,0 10 60
16.10.2017 08:00:00 17,6 16,3 5 3 ENE 1027,2 10 -
16.10.2017 07:00:00 16,8 16,0 5 3 NNE 1027,2 10 -
16.10.2017 06:00:00 16,4 10,0 9 5 NO 1027,2 10 -
16.10.2017 05:00:00 17,0 7,1 9 5 ONO 1027,4 10 -
16.10.2017 04:00:00 17,6 17,3 4 2 SO 1027,8 10 -
16.10.2017 03:00:00 17,2 12,5 5 3 ONO 1027,9 10 -
16.10.2017 02:00:00 16,6 12,7 11 6 ONO 1028,0 10 -
16.10.2017 01:00:00 17,2 15,2 9 5 OSO 1028,0 10 -
16.10.2017 00:00:00 18,2 16,9 9 5 SO 1027,9 10 -
15.10.2017 23:00:00 17,8 16,5 9 5 ONO 1028,0 10 -
15.10.2017 22:00:00 18,4 17,4 8 4 OSO 1027,9 10 -
15.10.2017 21:00:00 18,8 17,5 9 5 O 1027,9 10 -
15.10.2017 20:00:00 19,6 17,9 0 0 N 1028,1 10 -
15.10.2017 19:00:00 19,8 18,1 5 3 SE 1027,7 10 30
15.10.2017 18:00:00 21,4 17,8 5 3 ESE 1027,6 10 60
15.10.2017 17:00:00 22,0 18,4 8 4 ESE 1027,8 10 60
15.10.2017 16:00:00 22,0 18,4 13 7 E 1028,0 10 60
15.10.2017 15:00:00 23,0 18,3 13 7 E 1028,4 10 60
15.10.2017 14:00:00 23,0 17,5 13 7 E 1028,5 10 60
15.10.2017 13:00:00 23,4 17,2 13 7 E 1029,6 10 60
15.10.2017 12:00:00 23,6 16,9 9 5 E 1029,3 10 60
15.10.2017 11:00:00 22,6 16,4 5 3 E 1028,9 10 60
15.10.2017 10:00:00 18,0 13,5 5 3 NO 1028,6 10 60
15.10.2017 09:00:00 16,0 8,5 21 11 NO 1028,7 10 60
15.10.2017 08:00:00 16,0 8,5 15 8 ONO 1028,3 10 0
15.10.2017 07:00:00 16,4 9,8 13 7 NO 1028,1 10 -
15.10.2017 06:00:00 17,0 11,7 0 0 N 1027,9 10 -
15.10.2017 05:00:00 17,0 10,5 0 0 N 1027,9 10 -
15.10.2017 04:00:00 16,6 11,2 8 4 NO 1028,0 10 -
15.10.2017 03:00:00 16,6 11,2 9 5 NO 1028,1 10 -
15.10.2017 02:00:00 17,0 14,8 8 4 ONO 1028,0 10 -
15.10.2017 01:00:00 17,4 14,9 11 6 NO 1028,1 10 -
15.10.2017 00:00:00 17,6 15,7 11 6 NO 1028,1 10 -
14.10.2017 23:00:00 18,4 16,9 13 7 ONO 1027,9 10 -
14.10.2017 22:00:00 19,0 17,2 9 5 NO 1027,8 10 -
14.10.2017 21:00:00 20,0 17,3 5 3 ONO 1027,8 10 -
14.10.2017 20:00:00 20,4 17,4 0 0 N 1027,4 10 -
14.10.2017 19:00:00 21,6 17,4 5 3 E 1026,9 10 6
14.10.2017 18:00:00 22,6 17,5 8 4 E 1026,8 10 60
14.10.2017 17:00:00 22,8 17,1 9 5 E 1026,8 10 60
14.10.2017 16:00:00 23,0 17,0 11 6 E 1027,0 10 60
14.10.2017 15:00:00 23,2 17,2 13 7 E 1027,4 10 60
14.10.2017 14:00:00 23,4 17,8 15 8 E 1027,8 10 60
14.10.2017 13:00:00 23,8 17,9 18 10 E 1027,7 10 60
14.10.2017 12:00:00 23,6 17,0 15 8 E 1027,6 10 60
14.10.2017 11:00:00 22,2 17,1 11 6 ENE 1027,3 10 54
14.10.2017 10:00:00 18,8 14,4 4 2 N 1027,0 10 42
14.10.2017 09:00:00 17,2 12,6 16 9 NO 1027,0 10 0

tt = Temperatura
td = dewpoint
ff = velocità del vento
dd = direzione del vento
ppp = reduced air pressure
vv = visibility
sd = ore di luce

Stazioni seguenti

WeatherPro
AMSI
MeteoEarth